TOP > 外国特許検索

外国特許検索

Display results per page Option
Patent state
Country

Clear

Hits 4661 results

No. Application number
Gazette No
Country
Title
Release Date
Update Date
Information Provider
3801 2018JP035015 WO 2019059342 世界知的所有権機関(WIPO) OPTICAL WAVEGUIDE DEVICE, PHOTOELECTRIC CONVERSION DEVICE, BUILDING, ELECTRONIC DEVICE, MOVING BODY, AND ELECTROMAGNETIC WAVEGUIDE DEVICE 2019/05/08 2019/05/08 北海道大学
3802 2018JP031681 WO 2019049720 世界知的所有権機関(WIPO) SUPERCONDUCTING DEVICE AND MAGNET DEVICE 2019/05/08 2019/05/08 東京工業大学
3803 2018JP033185 WO 2019049981 世界知的所有権機関(WIPO) METHOD AND DEVICE FOR ANALYZING LAMINATION-SHAPED ARTICLE, AND METHOD AND DEVICE FOR MANUFACTURING LAMINATION-SHAPED ARTICLE 2019/05/08 2019/05/08 大阪府立大学
3804 2018JP033978 WO 2019054442 世界知的所有権機関(WIPO) IMPLANT INSTALLATION STRENGTH EVALUATION METHOD, IMPLANT INSTALLATION STRENGTH EVALUATION DEVICE, AND PROGRAM 新技術説明会 2019/05/08 2019/05/08 量子科学技術研究開発機構
3805 2018JP034191 WO 2019054484 世界知的所有権機関(WIPO) METHOD FOR MANUFACTURING LAYERED STRUCTURE OF MAGNETIC BODY AND BiSb, MAGNETORESISTIVE MEMORY, AND PURE SPIN INJECTION SOURCE 2019/05/08 2019/05/08 東京工業大学
3806 2018JP026287 WO 2019013272 世界知的所有権機関(WIPO) INTERMETALLIC COMPOUND, HYDROGEN STORAGE/RELEASE MATERIAL, CATALYST AND METHOD FOR PRODUCING AMMONIA 2019/05/09 2019/05/09 科学技術振興機構(JST)
3807 2018JP031419 WO 2019039597 世界知的所有権機関(WIPO) ORGANIC OPTICAL MATERIAL 2019/05/09 2019/05/09 科学技術振興機構(JST)
3808 2018JP029924 WO 2019031584 世界知的所有権機関(WIPO) MEASUREMENT DEVICE AND IRRADIATION DEVICE 2019/05/09 2019/05/09 科学技術振興機構(JST)
3809 2018JP036399 WO 2019066013 世界知的所有権機関(WIPO) HETEROELEMENT-CONTAINING GRAPHENE 2019/05/09 2019/05/09 科学技術振興機構(JST)
3810 2018JP034515 WO 2019059190 世界知的所有権機関(WIPO) COMPOSITE OXIDE, METAL-SUPPORTING MATERIAL AND AMMONIA SYNTHESIS CATALYST 新技術説明会 2019/05/09 2019/05/09 科学技術振興機構(JST)
3811 2018JP034156 WO 2019054474 世界知的所有権機関(WIPO) ALKALINE EARTH METAL TITANATE CRYSTAL LAMINATE 新技術説明会 2019/05/09 2019/05/09 科学技術振興機構(JST)
3812 2018JP032031 WO 2019044931 世界知的所有権機関(WIPO) THERMOELECTRIC MATERIAL, METHOD FOR PRODUCING SAME AND THERMOELECTRIC POWER GENERATION MODULE USING SAME 新技術説明会 2019/06/18 2019/07/24 物質・材料研究機構
3813 2018JP000873 WO 2018139237 世界知的所有権機関(WIPO) IMAGE PROCESSING METHOD 2019/06/27 2019/07/24 産総研
3814 2019JP006898 WO 2019163967 世界知的所有権機関(WIPO) MULTILAYER BODY AND METHOD FOR PRODUCING SAME 新技術説明会 2019/06/27 2019/10/23 産総研
3815 2013JP004059 WO 2014020823 世界知的所有権機関(WIPO) IMAGE PROCESSING SYSTEM, AND IMAGE PROCESSING METHOD 新技術説明会 2019/06/27 2019/07/24 産総研
3816 2019JP014846 WO 2019194236 世界知的所有権機関(WIPO) NUCLEIC ACID FOR CONTROLLING GENE EXPRESSION 新技術説明会 2019/06/27 2019/10/23 産総研
3817 2019JP003815 WO 2019198316 世界知的所有権機関(WIPO) METHOD FOR IMPROVING PHARMACOKINETICS OF MIDDLE MOLECULE HAVING BIOLOGICAL ACTIVITY AND METHOD FOR PRODUCING MIDDLE MOLECULE LIBRARY USING IMPROVED PHARMACOKINETICS 2019/06/27 2020/01/28 産総研
3818 2017JP043634 WO 2018123467 世界知的所有権機関(WIPO) NOVEL INDOLOQUINAZOLINE COMPOUND AND METHOD FOR PRODUCING SAME 新技術説明会 2019/06/27 2019/07/24 産総研
3819 2018JP007873 WO 2018159775 世界知的所有権機関(WIPO) OBJECT TRACKING DEVICE 2019/07/24 2019/07/24 筑波大学
3820 2018JP012149 WO 2018181185 世界知的所有権機関(WIPO) RESIN COMPOSITION AND METHOD FOR DETERMINING FLAME RETARDANCY OF RESIN COMPOSITION 2019/07/24 2019/07/24 同志社大学
3821 2018JP013777 WO 2018181960 世界知的所有権機関(WIPO) METHOD FOR PRODUCING OSTEOBLAST CLUSTER USING HUMAN iPS CELLS 新技術説明会 2019/07/24 2019/07/24 東北大学
3822 2018JP004580 WO 2018163712 世界知的所有権機関(WIPO) COMPOUND, SYNTHESIS METHOD FOR COMPOUND, AND ORGANIC SEMICONDUCTOR MATERIAL 2019/07/24 2019/07/24 広島大学
3823 2018JP004603 WO 2018179905 世界知的所有権機関(WIPO) INTERIOR CT IMAGE GENERATION METHOD 2019/07/24 2019/07/24 筑波大学
3824 2018JP017592 WO 2018207720 世界知的所有権機関(WIPO) METHOD AND DEVICE FOR THREE DIMENSIONAL MEASUREMENT USING FEATURE QUANTITY 新技術説明会 2019/07/24 2019/07/24 福井大学
3825 2018JP018788 WO 2018212192 世界知的所有権機関(WIPO) METHOD AND MARKER FOR ESTIMATING PROGNOSIS AND/OR METASTASIS POTENTIAL OF CANCER 2019/07/25 2019/07/25 京都府立医科大学
3826 2018JP017420 WO 2018216438 世界知的所有権機関(WIPO) WIRELESS COMMUNICATION APPARATUS AND ANTENNA DEVICE 新技術説明会 2019/07/25 2019/07/25 電気通信大学
3827 2018JP037352 WO 2019073923 世界知的所有権機関(WIPO) ANOMALOUS ITEM DETERMINATION METHOD 新技術説明会 2019/07/25 2019/07/25 岐阜大学
3828 2018JP037257 WO 2019073902 世界知的所有権機関(WIPO) CELL PROLIFERATION DETECTION METHOD USING FLUORESCENCE IN WATER-IN-OIL EMULSION CULTURING 2019/07/25 2019/07/25 産総研
3829 2018JP038040 WO 2019078100 世界知的所有権機関(WIPO) METHOD FOR PRODUCING COMPOSITE INCLUDING METAL COATED WITH SOLID MICROPARTICLES 新技術説明会 2019/07/25 2019/07/25 山形大学
3830 2018JP038134 WO 2019078117 世界知的所有権機関(WIPO) OPTICAL SIGNAL TRANSMISSION SYSTEM AND OPTICAL FIBER 2019/07/25 2019/07/25 大阪府立大学
3831 2018JP039182 WO 2019082841 世界知的所有権機関(WIPO) DENTAL IMAGE PROCESSING DEVICE, DENTAL IMAGING SYSTEM, DENTAL IMAGE PROCESSING METHOD, AND PROGRAM 新技術説明会 2019/07/25 2019/07/25 新潟大学
3832 2018JP039244 WO 2019082857 世界知的所有権機関(WIPO) JOINED BODY OF METAL AND RESIN MATERIAL 新技術説明会 2019/07/25 2019/07/25 信州大学
3833 2018JP039951 WO 2019083023 世界知的所有権機関(WIPO) COMPOSITION FOR USE IN TREATMENT OF CANCER 2019/07/25 2019/07/25 筑波大学
3834 2018JP040544 WO 2019088179 世界知的所有権機関(WIPO) NUCLEOSIDE DERIVATIVE AND USE THEREOF 2019/07/25 2019/07/25 岐阜大学
3835 2018JP041013 WO 2019093273 世界知的所有権機関(WIPO) SOLID ELECTROLYTE FOR ALL-SOLID SODIUM BATTERIES, AND ALL-SOLID SODIUM BATTERY 2019/07/25 2019/07/25 大阪府立大学
3836 2018JP044306 WO 2019111829 世界知的所有権機関(WIPO) PROPHYLACTIC OR THERAPEUTIC AGENT FOR PULMONARY HYPERTENSION COMPRISING MEBENDAZOLE AND/OR ITRACONAZOLE OR SALT THEREOF 2019/07/25 2019/07/25 東北大学
3837 2018JP010564 WO 2019123670 世界知的所有権機関(WIPO) IRON OXIDE FOR ORANGE PIGMENT AND METHOD FOR PRODUCING SAME 2019/07/25 2019/07/25 岡山大学
3838 2018JP038638 WO 2019082763 世界知的所有権機関(WIPO) SOIL SENSOR AND SOIL MEASUREMENT METHOD 2019/07/26 2019/07/26 静岡大学
3839 2018JP039434 WO 2019082912 世界知的所有権機関(WIPO) PROPHYLACTIC OR THERAPEUTIC AGENT FOR CHRONIC KIDNEY DISEASE 2019/07/26 2019/07/26 北里大学
3840 2018JP038954 WO 2019078343 世界知的所有権機関(WIPO) ENCRYPTION CONTROL SYSTEM, ENCRYPTION CONTROL METHOD AND ENCRYPTION CONTROL PROGRAM 2019/07/26 2019/07/26 電気通信大学
3841 2018JP037241 WO 2019073900 世界知的所有権機関(WIPO) MACHINE LEARNING DEVICE, DETERMINATION DEVICE, MACHINE LEARNING METHOD, DETERMINATION METHOD, LEARNING PROGRAM, DETERMINATION PROGRAM, AND RECORDING MEDIUM 2019/07/26 2019/07/26 徳島大学
3842 2018JP038171 WO 2019074109 世界知的所有権機関(WIPO) INORGANIC-PARTICLE COMPOSITE, PRODUCTION METHOD THEREFOR, AND INORGANIC-PARTICLE COMPOSITE DISPERSION 2019/07/26 2019/07/26 東京工業大学
3843 2018US027528 WO 2018191642 世界知的所有権機関(WIPO) NOVEL AMODIAQUINE ANALOGS AND METHODS OF USES THEREOF 2019/07/26 2019/07/26 鹿児島大学
3844 2018JP039992 WO 2019087988 世界知的所有権機関(WIPO) CONSTRUCT HAVING STRUCTURE AND CELL MASS LINKED TOGETHER 2019/07/26 2019/07/26 横浜市立大学
3845 2018JP039554 WO 2019082942 世界知的所有権機関(WIPO) METHOD FOR DETECTING PLANT STRESS AND METHOD FOR DETECTING PHOTOPROTEIN IN PLANT 2019/07/26 2019/07/26 筑波大学
3846 2018JP038900 WO 2019078311 世界知的所有権機関(WIPO) METHOD FOR MANUFACTURING SUBSTANTIALLY 1FL BODIES SHAPED AS CAPSULES, AND DEVICE USED FOR SAME 2019/07/26 2019/07/26 北陸先端科学技術大学院大学
3847 2018JP042320 WO 2019098286 世界知的所有権機関(WIPO) RARE EARTH COMPOUND, LIGHT-EMITTING BODY, LIGHT-EMITTING DEVICE, WAVELENGTH CONVERSION MATERIAL, AND SECURITY MATERIAL 2019/07/26 2019/07/26 北海道大学
3848 2018JP041417 WO 2019093400 世界知的所有権機関(WIPO) FLUORESCENT COMPOUND RESPONDING TO MITOCHONDRIAL MEMBRANE POTENTIAL 2019/07/26 2019/07/26 高知大学
3849 2018JP042181 WO 2019098246 世界知的所有権機関(WIPO) MODIFIED COLLAGEN PROTEIN AND APPLICATION OF SAME 2019/07/26 2019/07/26 筑波大学
3850 2018JP044773 WO 2019111964 世界知的所有権機関(WIPO) IMAGE DISPLAY DEVICE, IMAGE DISPLAY METHOD, AND IMAGE DISPLAY SYSTEM 2019/07/26 2019/07/26 筑波大学
3851 2018JP043696 WO 2019107385 世界知的所有権機関(WIPO) NOVEL MICROALGAE AND USE FOR SAME 2019/07/29 2019/07/29 科学技術振興機構(JST)
3852 2018JP043787 WO 2019107411 世界知的所有権機関(WIPO) TUNNELING FIELD EFFECT TRANSISTOR 2019/07/29 2019/07/29 科学技術振興機構(JST)
3853 2018JP047940 WO 2019131795 世界知的所有権機関(WIPO) SILICON BULK THERMOELECTRIC CONVERSION MATERIAL 2019/07/29 2019/07/29 科学技術振興機構(JST)
3854 2011JP057579 WO 2011125596 世界知的所有権機関(WIPO) METHOD FOR LAMINATING FIBER-REINFORCED THERMOPLASTIC RESIN PREPREG 新技術説明会 2019/08/20 2019/10/23 広島県立総合技術研究所
3855 2016JP066930 WO 2016199766 世界知的所有権機関(WIPO) METHOD FOR IMPREGNATING SUBSTANCE INTO FOOD MATERIAL 新技術説明会 2019/08/20 2019/10/23 広島県立総合技術研究所
3856 2018JP019838 WO 2018221349 世界知的所有権機関(WIPO) EVALUATION DEVICE, EVALUATION METHOD, PROGRAM, AND INFORMATION RECORDING MEDIUM 2019/08/23 2019/10/23 理化学研究所
3857 2019JP001360 WO 2019142882 世界知的所有権機関(WIPO) POWER GENERATION DEVICE AND POWER GENERATION METHOD 新技術説明会 2019/08/23 2019/10/23 理化学研究所
3858 2018JP032517 WO 2019097815 世界知的所有権機関(WIPO) ELECTRODE MATERIAL FOR CAPACITOR 新技術説明会 2019/09/18 2019/10/23 東京理科大学
3859 2019JP027882 WO 2020017493 世界知的所有権機関(WIPO) COMPLEX OXIDE CERAMIC, METHOD FOR PRODUCING SAME, AND ARTICLE 新技術説明会 2019/10/18 2020/05/29 東京工業大学
3860 2019JP034432 WO 2020050215 世界知的所有権機関(WIPO) METHOD FOR PRODUCING OXIDE USING β-MANGANESE DIOXIDE 新技術説明会 2019/10/18 2020/05/29 東京工業大学
3861 2018JP020636 WO 2018225588 世界知的所有権機関(WIPO) SPINAL FUSION IMPLANT 2019/10/24 2019/10/24 神戸大学
3862 2018JP023131 WO 2018235777 世界知的所有権機関(WIPO) IMAGE DATA PROCESSING DEVICE, PLANT CULTIVATION SYSTEM, AND IMAGE DATA PROCESSING METHOD 新技術説明会 2019/10/24 2019/10/24 静岡大学
3863 2018JP048211 WO 2019131897 世界知的所有権機関(WIPO) PROPHYLACTIC AGENT AND/OR THERAPEUTIC AGENT FOR CATARACT, MEDICINAL COMPOSITION FOR PREVENTING AND/OR TREATING CATARACT, USE OF PPAR ACTIVATOR FOR PRODUCING SAME, AND EYEDROPS 2019/10/24 2019/10/24 福井大学
3864 2018JP048125 WO 2019131872 世界知的所有権機関(WIPO) SUBSTRATE FOR POLYMER BRUSH FORMATION, PRODUCTION METHOD FOR SUBSTRATE FOR POLYMER BRUSH FORMATION, AND PRECURSOR LIQUID FOR USE IN PRODUCTION METHOD FOR SUBSTRATE FOR POLYMER BRUSH FORMATION 新技術説明会 2019/10/24 2019/10/24 産総研
3865 2018JP048471 WO 2019132004 世界知的所有権機関(WIPO) PROPHYLACTIC AGENT OR THERAPEUTIC AGENT FOR ALZHEIMER'S DISEASE, SCREENING METHOD THEREFOR, AND COMPOSITION FOR PREVENTING OR TREATING ALZHEIMER'S DISEASE 2019/10/24 2019/10/24 熊本大学
3866 2018JP048411 WO 2019131989 世界知的所有権機関(WIPO) PROPHYLACTIC OR THERAPEUTIC FOR GM1 GANGLIOSIDOSIS, AND COMPOSITION FOR PREVENTING OR TREATING GM1 GANGLIOSIDOSIS 2019/10/24 2019/10/24 熊本大学
3867 2018JP047362 WO 2019131552 世界知的所有権機関(WIPO) BIOMARKERS FOR DETERMINING CANCER SUCH AS PANCREATIC CANCER 2019/10/24 2019/10/24 熊本大学
3868 2018JP047230 WO 2019131502 世界知的所有権機関(WIPO) METHOD FOR PRODUCING LIPIDS 2019/10/24 2019/10/24 広島大学
3869 2018JP047871 WO 2019131769 世界知的所有権機関(WIPO) NOVEL ANTI-PAD4 ANTIBODY 2019/10/24 2019/10/24 名古屋市立大学
3870 2018JP044203 WO 2019130983 世界知的所有権機関(WIPO) CARBON NITRIDE, METHOD FOR PRODUCING SAME, AND SEMICONDUCTOR MATERIAL 新技術説明会 2019/10/24 2019/10/24 山形大学
3871 2018JP047588 WO 2019131640 世界知的所有権機関(WIPO) LIGHT ABSORBING DEVICE, MANUFACTURING METHOD THEREOF, AND PHOTOELECTRODE 2019/10/24 2019/10/24 北海道大学
3872 2018JP045295 WO 2019124141 世界知的所有権機関(WIPO) POWER CONVERSION DEVICE AND POWER SUPPLY DEVICE 2019/10/24 2019/10/24 静岡大学
3873 2018JP045505 WO 2019124164 世界知的所有権機関(WIPO) ENCRYPTED DATA PROCESSING SYSTEM AND PROGRAM 2019/10/24 2019/10/24 東京理科大学
3874 2018JP047049 WO 2019124509 世界知的所有権機関(WIPO) ANTI-HIV PHARMACEUTICAL COMPOSITION 2019/10/24 2019/10/24 熊本大学
3875 2018JP043967 WO 2019124019 世界知的所有権機関(WIPO) CURVATURE DETECTION SENSOR 2019/10/24 2019/10/24 筑波大学
3876 2018JP044746 WO 2019116988 世界知的所有権機関(WIPO) PAIN SENSATION MEASUREMENT DEVICE AND PAIN SENSATION MEASUREMENT METHOD 2019/10/24 2019/10/24 群馬大学
3877 2019JP000333 WO 2019139031 世界知的所有権機関(WIPO) NUTRIENT LIQUID CULTIVATION METHOD FOR CULTIVATED PLANT, AND CULTURE SOLUTION FOR NUTRIENT LIQUID CULTIVATION 2019/10/24 2019/10/24 京都府立大学
3878 2019JP000248 WO 2019139009 世界知的所有権機関(WIPO) LINKER COMPOUND, DIAMOND ELECTRODE, DEVICE, METHOD FOR DETECTING PATHOGEN OR PROTEIN, AND METHOD FOR MANUFACTURING DIAMOND ELECTRODE 2019/10/24 2019/10/24 慶應義塾大学
3879 2018JP047072 WO 2019135362 世界知的所有権機関(WIPO) TRANSPARENT MATERIAL PROCESSING METHOD, TRANSPARENT MATERIAL PROCESSING DEVICE, AND TRANSPARENT MATERIAL 新技術説明会 2019/10/24 2019/10/24 弘前大学
3880 2019JP003481 WO 2019151438 世界知的所有権機関(WIPO) ADSORBENT FOR HEAVY WATER ADSORPTION AND METHOD FOR SEPARATING HEAVY WATER 新技術説明会 2019/10/24 2019/10/24 北海道大学
3881 2019JP003482 WO 2019151439 世界知的所有権機関(WIPO) CREATION OF PEPTIDE-BASED ANTI-TUMOR AGENT 2019/10/24 2019/10/24 北海道大学
3882 2019JP003267 WO 2019151360 世界知的所有権機関(WIPO) LYOTROPIC LIQUID CRYSTAL MATERIAL, LYOTROPIC LIQUID CRYSTAL FILM AND METHOD FOR PRODUCING SAME, SENSOR AND OPTICAL ELEMENT 新技術説明会 2019/10/24 2019/10/24 東京理科大学
3883 2019JP004038 WO 2019151533 世界知的所有権機関(WIPO) PRESSURE DISTRIBUTION SENSOR 新技術説明会 2019/10/25 2019/10/25 産総研
3884 2019JP002543 WO 2019151147 世界知的所有権機関(WIPO) MACHINE TOOL, MANUFACTURING METHOD, AND PROGRAM 2019/10/25 2019/10/25 慶應義塾大学
3885 2018JP037918 WO 2019146174 世界知的所有権機関(WIPO) DYED POLYPROPYLENE FIBER STRUCTURE, GARMENT USING SAME, AND ANTHRAQUINONE COMPOUND 新技術説明会 2019/10/25 2019/10/25 福井大学
3886 2019JP000593 WO 2019139100 世界知的所有権機関(WIPO) METHOD FOR PRODUCING PIEZOELECTRIC FILM 2019/10/25 2019/10/25 東京工業大学
3887 2019JP007195 WO 2019164007 世界知的所有権機関(WIPO) MARKER FOR IDIOPATHIC SCOLIOSIS 新技術説明会 2019/10/25 2019/10/25 富山大学
3888 2018JP024880 WO 2019163155 世界知的所有権機関(WIPO) ALUMINUM ALLOY MATERIAL HAVING EXCELLENT CORROSION RESISTANCE AND STRENGTH, AND METHOD FOR PRODUCING SAME 新技術説明会 2019/10/25 2019/10/25 芝浦工業大学
3889 2019JP002512 WO 2019155916 世界知的所有権機関(WIPO) IMAGE DISPLAY DEVICE USING RETINAL SCAN DISPLAY UNIT AND METHOD THEREFOR 2019/10/25 2019/10/25 福井大学
3890 2019JP004980 WO 2019159925 世界知的所有権機関(WIPO) CHONDROCYTE PROLIFERATION PROMOTER, CHONDROCYTE PROLIFERATION PROMOTION METHOD, SCREENING METHOD FOR CHONDROCYTE PROLIFERATION PROMOTERS 2019/10/25 2019/10/25 東京理科大学
3891 2019JP007121 WO 2019163994 世界知的所有権機関(WIPO) HEMOPOIESIS-ENHANCING AGENT 2019/10/25 2019/10/25 東北大学
3892 2019JP005758 WO 2019160132 世界知的所有権機関(WIPO) DECORATIVE AQUEOUS COMPOSITION AND METHOD FOR PRODUCING SAME 2019/10/25 2019/10/25 名古屋市立大学
3893 2019JP005679 WO 2019160110 世界知的所有権機関(WIPO) PHOTOCATALYST PARTICLE AND METHOD FOR PRODUCING SAME, MATERIAL INCLUDING SAID PARTICLE, AND PRODUCT INCLUDING SAID MATERIAL 2019/10/25 2019/10/25 筑波大学
3894 2019JP005727 WO 2019160129 世界知的所有権機関(WIPO) CANCER LESION TISSUE EVALUATION FOR OPTIMIZING EFFECT OF BORON NEUTRON CAPTURE THERAPY 2019/10/25 2019/10/25 岡山大学
3895 2019JP001343 WO 2019159596 世界知的所有権機関(WIPO) METHOD FOR PREPARING COUPLED BODY OF LEAVING GROUP-CONTAINING ORGANIC COMPOUND AND ORGANOSILICON COMPOUND 2019/10/25 2019/10/25 自然科学研究機構(NINS)
3896 2019JP004475 WO 2019156180 世界知的所有権機関(WIPO) DISSOLUTION SYSTEM FOR POORLY WATER-SOLUBLE ORGANIC COMPOUND, METHOD FOR DISSOLVING POORLY WATER-SOLUBLE ORGANIC COMPOUND, AND ODOR DETECTION SYSTEM 2019/10/25 2019/10/25 東京大学
3897 2019JP002213 WO 2019155895 世界知的所有権機関(WIPO) IMPLANTABLE HEMODIALYSIS DEVICE 2019/10/25 2019/10/25 慶應義塾大学
3898 2019JP004061 WO 2019156070 世界知的所有権機関(WIPO) MACHINE LEARNING SYSTEM AND MACHINE LEARNING METHOD 2019/10/25 2019/10/25 静岡大学
3899 2019JP004425 WO 2019156170 世界知的所有権機関(WIPO) SHAPING APPARATUS, DROPLET MOVEMENT DEVICE, TARGET OBJECT PRODUCTION METHOD, DROPLET MOVEMENT METHOD, AND PROGRAM 2019/10/25 2019/10/25 横浜国立大学
3900 2019JP002440 WO 2019151128 世界知的所有権機関(WIPO) CELL LABELING AGENT AND CELL LABELING KIT 2019/10/25 2019/10/25 宮崎大学

PAGE TOP